WA1OUI Weather Reports


time (UTC)temp
C
wind
direction
speed
KPH
gust
KPH
rain 1hr
cm
rain 24hr
cm
rain mn
cm
humidity
%
barometer
mb
20260510213321 18 332 3.2 3.2 0.00 0.00 0.00 70 1010.7
20260510212818 18 349 6.4 6.4 0.00 0.00 0.00 72 1010.8
20260510212315 18 31 6.4 8.0 0.00 0.00 0.00 69 1010.7
20260510211812 18 352 3.2 3.2 0.00 0.00 0.00 69 1010.7
20260510211308 18 344 1.6 3.2 0.00 0.00 0.00 69 1010.5
20260510210804 18 349 0.0 3.2 0.00 0.00 0.00 69 1010.4
20260510210258 18 347 3.2 3.2 0.00 0.00 0.00 69 1010.5
20260510205758 18 11 4.8 9.7 0.00 0.00 0.00 67 1010.5
20260510205253 18 1 3.2 8.0 0.00 0.00 0.00 67 1010.8
20260510204750 18 5 4.8 6.4 0.00 0.00 0.00 65 1010.6
20260510204246 18 354 3.2 4.8 0.00 0.00 0.00 65 1010.6
20260510203743 18 356 3.2 4.8 0.00 0.00 0.00 61 1010.7
20260510203241 19 350 4.8 6.4 0.00 0.00 0.00 59 1010.5
20260510202741 19 346 4.8 6.4 0.00 0.00 0.00 60 1010.3
20260510202236 19 27 4.8 8.0 0.00 0.00 0.00 53 1010.2
20260510201734 20 342 1.6 4.8 0.00 0.00 0.00 54 1010.1
20260510201230 20 344 6.4 6.4 0.00 0.00 0.00 63 1010.1
20260510200727 20 6 1.6 4.8 0.00 0.00 0.00 64 1010.0
20260510200225 20 112 6.4 6.4 0.00 0.00 0.00 60 1009.7
20260510195721 21 157 0.0 4.8 0.00 0.00 0.00 61 1009.6
20260510195218 21 33 1.6 4.8 0.00 0.00 0.00 62 1009.6
20260510194717 21 10 3.2 4.8 0.00 0.00 0.00 62 1009.7
20260510194214 21 326 3.2 4.8 0.00 0.00 0.00 61 1009.7
20260510193710 21 59 3.2 6.4 0.00 0.00 0.00 58 1009.8
20260510193210 21 35 1.6 3.2 0.00 0.00 0.00 59 1009.7
20260510192706 21 20 1.6 6.4 0.00 0.00 0.00 59 1009.8
20260510192201 21 90 0.0 4.8 0.00 0.00 0.00 60 1009.7
20260510191657 21 48 0.0 3.2 0.00 0.00 0.00 61 1009.6
20260510191154 21 26 3.2 3.2 0.00 0.00 0.00 61 1009.7
20260510190652 20 351 3.2 3.2 0.00 0.00 0.00 65 1009.7
20260510190149 20 32 0.0 1.6 0.00 0.00 0.00 63 1009.7
20260510185645 20 36 0.0 3.2 0.00 0.00 0.00 62 1009.8
20260510185144 20 340 1.6 3.2 0.00 0.00 0.00 64 1009.8
20260510184640 20 98 3.2 4.8 0.00 0.00 0.00 64 1010.0
20260510184136 20 14 3.2 4.8 0.00 0.00 0.00 65 1010.0
20260510183631 21 125 1.6 6.4 0.00 0.00 0.00 64 1009.9
20260510183127 21 170 0.0 3.2 0.00 0.00 0.00 65 1010.0
20260510182624 20 137 3.2 3.2 0.00 0.00 0.00 65 1010.1
20260510182119 20 354 3.2 6.4 0.00 0.00 0.00 64 1009.9
20260510181617 21 9 3.2 3.2 0.00 0.00 0.00 66 1010.1
20260510181113 21 83 0.0 6.4 0.00 0.00 0.00 62 1009.9
20260510180609 21 94 0.0 4.8 0.00 0.00 0.00 65 1009.9
20260510180107 20 355 4.8 4.8 0.00 0.00 0.00 66 1010.1
20260510175603 20 26 3.2 3.2 0.00 0.00 0.00 65 1010.0
20260510175058 20 30 3.2 3.2 0.00 0.00 0.00 66 1010.2
20260510174557 20 354 0.0 3.2 0.00 0.00 0.00 66 1009.9
20260510174053 20 96 0.0 8.0 0.00 0.00 0.00 65 1010.0
20260510173549 20 354 3.2 4.8 0.00 0.00 0.00 65 1010.0
20260510173046 21 328 0.0 6.4 0.00 0.00 0.00 65 1010.1
20260510172542 21 132 0.0 3.2 0.00 0.00 0.00 63 1010.0
20260510172038 20 344 6.4 6.4 0.00 0.00 0.00 67 1010.0
20260510171535 20 158 0.0 3.2 0.00 0.00 0.00 66 1010.1
20260510171032 20 334 3.2 4.8 0.00 0.00 0.00 70 1010.4
20260510170528 20 344 3.2 4.8 0.00 0.00 0.00 70 1010.2
20260510170025 20 18 3.2 6.4 0.00 0.00 0.00 67 1010.2
20260510165520 20 314 0.0 6.4 0.00 0.00 0.00 69 1010.0
20260510165017 20 29 4.8 8.0 0.00 0.00 0.00 69 1010.2
20260510164514 20 352 3.2 3.2 0.00 0.00 0.00 70 1010.4
20260510164010 20 3 3.2 4.8 0.00 0.00 0.00 70 1010.6
20260510163506 19 7 3.2 6.4 0.00 0.00 0.00 71 1010.4
20260510163001 19 338 3.2 3.2 0.00 0.00 0.00 70 1010.5
20260510162458 20 2 1.6 4.8 0.00 0.00 0.00 69 1010.5
20260510161954 19 19 3.2 4.8 0.00 0.00 0.00 71 1010.5
20260510161450 18 76 0.0 6.4 0.00 0.00 0.00 72 1010.8
20260510160948 18 18 4.8 6.4 0.00 0.00 0.00 75 1010.7
20260510160445 18 16 6.4 6.4 0.00 0.00 0.00 74 1010.7
20260510155942 17 334 4.8 9.7 0.00 0.00 0.00 75 1010.6
20260510155440 17 22 0.0 4.8 0.00 0.00 0.00 74 1010.7
20260510154937 18 187 0.0 6.4 0.00 0.00 0.00 73 1010.8
20260510154433 18 15 6.4 6.4 0.00 0.00 0.00 74 1011.0
20260510153931 18 8 1.6 4.8 0.00 0.00 0.00 75 1011.0
20260510153428 17 28 3.2 4.8 0.00 0.00 0.00 74 1010.9
20260510152925 17 336 6.4 9.7 0.00 0.00 0.00 74 1011.1
20260510152423 17 337 3.2 3.2 0.00 0.00 0.00 74 1011.1
20260510151918 17 348 3.2 6.4 0.00 0.00 0.00 74 1011.1
20260510151416 17 315 9.7 9.7 0.00 0.00 0.00 75 1011.1
20260510150912 17 327 3.2 4.8 0.00 0.00 0.00 76 1011.1
20260510150408 16 23 3.2 4.8 0.00 0.00 0.00 77 1011.2
20260510145904 16 134 0.0 3.2 0.00 0.00 0.00 78 1011.2
20260510145401 16 324 4.8 4.8 0.00 0.00 0.00 79 1011.1
20260510144857 15 23 4.8 6.4 0.00 0.00 0.00 82 1011.0
20260510144354 15 12 4.8 4.8 0.00 0.00 0.00 81 1011.1
20260510143849 15 10 1.6 8.0 0.00 0.00 0.00 85 1011.2
20260510143345 15 342 3.2 4.8 0.00 0.00 0.00 86 1011.1
20260510142842 14 344 3.2 4.8 0.00 0.00 0.00 87 1011.2
20260510142338 14 334 3.2 6.4 0.00 0.00 0.00 85 1011.2
20260510141836 14 314 1.6 4.8 0.00 0.00 0.00 86 1011.3
20260510141333 14 39 3.2 4.8 0.00 0.00 0.00 87 1011.4
20260510140830 14 336 1.6 3.2 0.00 0.00 0.00 87 1011.1
20260510140326 13 3 3.2 8.0 0.00 0.00 0.00 90 1011.4
20260510135825 13 352 3.2 8.0 0.00 0.00 0.00 91 1011.5
20260510135321 13 286 12.9 12.9 0.00 0.00 0.00 92 1011.3
20260510134819 12 354 3.2 6.4 0.00 0.00 0.00 92 1011.2
20260510134316 12 17 0.0 4.8 0.00 0.00 0.00 93 1011.1
20260510133811 12 344 1.6 4.8 0.00 0.00 0.00 95 1011.1
20260510133308 12 334 3.2 4.8 0.00 0.00 0.00 96 1011.2
20260510132803 12 346 4.8 4.8 0.00 0.00 0.00 96 1011.1
20260510132305 12 346 4.8 4.8 0.00 0.00 0.00 96 1011.3
20260510131758 12 356 3.2 4.8 0.00 0.00 0.00 96 1011.2
20260510131256 12 355 4.8 4.8 0.00 0.00 0.00 96 1011.3
20260510130752 12 328 3.2 4.8 0.00 0.00 0.00 96 1011.4
20260510130249 12 344 1.6 3.2 0.00 0.00 0.00 97 1011.1
20260510125745 12 0 3.2 4.8 0.00 0.00 0.00 97 1011.3
20260510125241 12 351 3.2 4.8 0.00 0.00 0.00 97 1011.2
20260510124738 11 341 1.6 3.2 0.00 0.00 0.00 98 1011.2
20260510124236 11 336 3.2 3.2 0.00 0.00 0.00 98 1011.0
20260510123731 11 334 3.2 4.8 0.00 0.00 0.00 98 1011.1
20260510123227 11 348 3.2 3.2 0.00 0.00 0.00 99 1010.9
20260510122724 11 343 3.2 3.2 0.00 0.00 0.00 99 1011.0
20260510122220 11 348 3.2 3.2 0.00 0.00 0.00 99 1010.8
20260510121717 11 339 1.6 3.2 0.00 0.00 0.00 99 1010.8
20260510121214 11 344 3.2 4.8 0.00 0.00 0.00 99 1011.0
20260510120711 11 333 4.8 4.8 0.00 0.00 0.00 99 1010.9
20260510120208 11 318 4.8 4.8 0.00 0.00 0.00 99 1011.0
20260510115703 11 356 3.2 4.8 0.00 0.00 0.00 99 1010.9
20260510115202 11 2 3.2 6.4 0.00 0.00 0.00 99 1010.9
20260510114657 11 350 4.8 6.4 0.00 0.00 0.00 99 1010.8
20260510114154 11 343 3.2 4.8 0.00 0.00 0.00 99 1010.8
20260510113649 11 336 4.8 4.8 0.00 0.00 0.00 99 1010.8
20260510113146 11 342 3.2 3.2 0.00 0.00 0.00 99 1010.6
20260510112643 11 0 3.2 3.2 0.00 0.00 0.00 99 1010.7
20260510112140 11 4 3.2 4.8 0.00 0.00 0.00 99 1010.6
20260510111636 11 334 4.8 4.8 0.00 0.00 0.00 99 1010.5
20260510111132 11 337 3.2 4.8 0.00 0.00 0.00 99 1010.4
20260510110627 10 343 3.2 3.2 0.00 0.00 0.00 99 1010.4
20260510110126 10 348 3.2 3.2 0.00 0.00 0.00 99 1010.5
20260510105621 10 338 3.2 4.8 0.00 0.00 0.00 99 1010.6
20260510105120 10 356 3.2 3.2 0.00 0.00 0.00 99 1010.4
20260510104618 10 348 3.2 4.8 0.00 0.00 0.00 99 1010.3
20260510104114 10 334 3.2 4.8 0.00 0.00 0.00 99 1010.4
20260510103611 10 355 3.2 3.2 0.00 0.00 0.00 99 1010.2
20260510103107 10 350 3.2 3.2 0.00 0.00 0.00 99 1010.0
20260510102603 10 344 3.2 3.2 0.00 0.00 0.00 99 1010.3
20260510102059 10 349 3.2 3.2 0.00 0.00 0.00 99 1010.3
20260510101557 10 338 3.2 4.8 0.00 0.00 0.00 99 1010.3
20260510101055 10 338 4.8 4.8 0.00 0.00 0.00 99 1009.9
20260510100551 10 349 3.2 3.2 0.00 0.00 0.00 99 1010.0
20260510100049 10 347 1.6 3.2 0.00 0.00 0.00 99 1009.8
20260510095544 10 326 4.8 4.8 0.00 0.00 0.00 99 1009.6
20260510095044 10 63 0.0 3.2 0.00 0.00 0.00 99 1009.8
20260510094538 10 2 3.2 3.2 0.00 0.00 0.00 99 1010.3
20260510094034 10 341 3.2 4.8 0.00 0.00 0.00 99 1010.3
20260510093530 10 9 3.2 3.2 0.00 0.00 0.00 99 1009.8
20260510093027 10 8 3.2 3.2 0.00 0.00 0.00 99 1010.0
20260510092524 10 13 1.6 3.2 0.00 0.00 0.00 99 1010.2
20260510092023 10 343 3.2 4.8 0.00 0.00 0.00 99 1010.0
20260510091521 10 330 3.2 3.2 0.00 0.00 0.00 99 1010.0
20260510091016 10 1 3.2 3.2 0.00 0.00 0.00 99 1009.9
20260510090514 10 342 3.2 3.2 0.00 0.00 0.00 99 1010.0
20260510090010 10 354 1.6 4.8 0.00 0.00 0.00 99 1010.1
20260510085510 10 359 0.0 3.2 0.00 0.00 0.00 99 1010.1
20260510085006 10 357 3.2 4.8 0.00 0.00 0.00 99 1010.2
20260510084503 10 357 1.6 3.2 0.00 0.00 0.00 99 1010.5
20260510083959 10 339 3.2 4.8 0.00 0.00 0.00 99 1010.5
20260510083456 10 359 3.2 4.8 0.00 0.00 0.00 99 1010.3
20260510082951 10 341 3.2 3.2 0.00 0.00 0.00 99 1010.2
20260510082449 10 352 3.2 4.8 0.00 0.00 0.00 99 1010.1
20260510081949 10 348 3.2 4.8 0.00 0.00 0.00 99 1010.0
20260510081444 10 344 3.2 3.2 0.00 0.00 0.00 99 1009.9
20260510080941 10 345 3.2 3.2 0.00 0.00 0.00 99 1010.0
20260510080439 10 346 3.2 3.2 0.00 0.00 0.00 99 1010.2
20260510075937 10 334 3.2 4.8 0.00 0.00 0.00 99 1010.1
20260510075435 10 356 3.2 3.2 0.00 0.00 0.00 99 1010.2
20260510074931 10 1 3.2 3.2 0.00 0.00 0.00 99 1009.9
20260510074428 10 349 3.2 4.8 0.00 0.00 0.00 99 1010.0
20260510073925 10 350 3.2 3.2 0.00 0.00 0.00 99 1010.0
20260510073420 10 348 3.2 3.2 0.00 0.00 0.00 99 1009.8
20260510072917 10 353 3.2 3.2 0.00 0.00 0.00 99 1009.8
20260510072414 10 355 3.2 3.2 0.00 0.00 0.00 99 1009.9
20260510071909 11 2 3.2 3.2 0.00 0.00 0.00 99 1009.8
20260510071406 11 347 3.2 3.2 0.00 0.00 0.00 99 1010.0
20260510070904 11 348 3.2 3.2 0.00 0.00 0.00 99 1009.8
20260510070401 11 335 3.2 3.2 0.00 0.00 0.00 99 1009.7
20260510065856 11 342 3.2 3.2 0.00 0.00 0.00 99 1009.6
20260510065353 11 339 3.2 3.2 0.00 0.00 0.00 99 1009.8
20260510064849 11 334 1.6 3.2 0.00 0.00 0.00 99 1009.7
20260510064348 11 341 4.8 4.8 0.00 0.00 0.00 99 1009.8
20260510063843 11 345 3.2 3.2 0.00 0.00 0.00 99 1009.8
20260510063340 11 351 3.2 3.2 0.00 0.00 0.00 99 1009.6
20260510062837 11 337 3.2 3.2 0.00 0.00 0.00 99 1009.7
20260510062332 11 337 3.2 4.8 0.00 0.00 0.00 99 1009.7
20260510061828 11 341 3.2 4.8 0.00 0.00 0.00 99 1009.6
20260510061325 11 341 3.2 3.2 0.00 0.00 0.00 99 1009.6
20260510060821 11 342 3.2 3.2 0.00 0.00 0.00 99 1009.5
20260510060318 11 349 3.2 3.2 0.00 0.00 0.00 99 1009.4
20260510055815 11 339 3.2 4.8 0.00 0.00 0.00 99 1009.5
20260510055313 11 349 1.6 3.2 0.00 0.00 0.00 99 1009.5
20260510054813 10 352 3.2 3.2 0.00 0.00 0.00 99 1009.5
20260510054309 10 345 3.2 3.2 0.00 0.00 0.00 99 1009.6
20260510053810 10 354 3.2 3.2 0.00 0.00 0.00 99 1009.8
20260510053305 11 359 3.2 3.2 0.00 0.00 0.00 99 1009.8
20260510052802 11 3 3.2 3.2 0.00 0.00 0.00 99 1009.6
20260510052258 11 349 3.2 3.2 0.00 0.00 0.00 99 1009.4
20260510051754 11 344 4.8 4.8 0.00 0.00 0.00 99 1009.6
20260510051250 11 339 4.8 4.8 0.00 0.00 0.00 99 1009.7
20260510050747 11 342 3.2 4.8 0.00 0.00 0.00 99 1009.8
20260510050244 11 348 3.2 3.2 0.00 0.00 0.00 99 1009.7
20260510045741 11 342 3.2 3.2 0.00 0.00 0.00 99 1009.7
20260510045238 11 345 3.2 4.8 0.00 0.00 0.00 99 1009.7
20260510044734 11 338 4.8 4.8 0.00 0.00 0.00 99 1009.9
20260510044232 11 350 3.2 3.2 0.00 0.00 0.00 99 1009.6
20260510043727 11 351 4.8 4.8 0.00 0.00 0.00 99 1009.6
20260510043225 11 334 4.8 4.8 0.00 0.00 0.00 99 1009.8
20260510042722 11 353 3.2 3.2 0.00 0.00 0.00 99 1009.7
20260510042217 11 350 3.2 4.8 0.00 0.00 0.00 99 1009.7
20260510041715 11 357 1.6 4.8 0.00 0.00 0.00 99 1009.7
20260510041212 11 334 3.2 4.8 0.00 0.00 0.00 99 1009.6
20260510040708 11 355 1.6 3.2 0.00 0.00 0.00 99 1009.6
20260510040206 11 351 0.0 3.2 0.00 0.00 0.00 99 1009.7
20260510035701 11 348 1.6 4.8 0.00 1.83 1.83 99 1009.7
20260510035157 11 359 3.2 3.2 0.00 1.83 1.83 99 1009.6
20260510034653 11 7 0.0 3.2 0.00 1.83 1.83 99 1009.8
20260510034150 11 340 3.2 4.8 0.00 1.83 1.83 99 1009.7
20260510033646 11 352 0.0 4.8 0.00 1.83 1.83 99 1009.8
20260510033144 11 331 3.2 4.8 0.00 1.83 1.83 99 1009.8
20260510032641 11 341 4.8 4.8 0.00 1.83 1.83 99 1009.7
20260510032136 11 344 3.2 4.8 0.00 1.83 1.83 99 1009.7
20260510031631 11 338 4.8 4.8 0.00 1.83 1.83 99 1009.7
20260510031129 11 341 3.2 3.2 0.00 1.83 1.83 99 1009.7
20260510030622 11 341 3.2 3.2 0.00 1.83 1.83 99 1009.8
20260510030121 11 338 3.2 6.4 0.00 1.83 1.83 99 1009.8
20260510025617 11 342 3.2 3.2 0.00 1.83 1.83 99 1009.6
20260510025115 11 344 4.8 4.8 0.00 1.83 1.83 99 1009.6
20260510024612 11 335 3.2 4.8 0.00 1.83 1.83 99 1009.4
20260510024108 11 347 3.2 3.2 0.00 1.83 1.83 99 1009.3
20260510023604 11 342 3.2 4.8 0.00 1.83 1.83 99 1009.5
20260510023102 11 357 3.2 3.2 0.00 1.83 1.83 99 1009.4
20260510022601 11 349 3.2 4.8 0.00 1.83 1.83 99 1009.5
20260510022056 11 351 3.2 6.4 0.00 1.83 1.83 99 1009.7
20260510021552 11 342 3.2 4.8 0.00 1.83 1.83 99 1009.5
20260510021050 11 349 3.2 4.8 0.00 1.83 1.83 99 1009.7
20260510020550 11 333 3.2 4.8 0.00 1.83 1.83 99 1009.8
20260510020046 11 338 3.2 4.8 0.00 1.83 1.83 99 1009.7
20260510015542 11 341 4.8 4.8 0.00 1.83 1.83 99 1009.7
20260510015038 11 349 3.2 4.8 0.00 1.83 1.83 99 1009.8
20260510014535 11 356 3.2 4.8 0.00 1.83 1.83 99 1010.0
20260510014032 11 343 3.2 4.8 0.00 1.83 1.83 99 1009.8
20260510013532 11 340 3.2 4.8 0.00 1.83 1.83 99 1009.7
20260510013028 11 337 3.2 4.8 0.00 1.83 1.83 99 1009.7
20260510012522 11 345 3.2 3.2 0.00 1.83 1.83 99 1009.7
20260510012019 11 336 3.2 4.8 0.00 1.83 1.83 99 1009.7
20260510011518 11 341 3.2 4.8 0.00 1.83 1.83 99 1009.7
20260510011014 11 333 4.8 6.4 0.00 1.83 1.83 99 1009.4
20260510010511 11 351 3.2 4.8 0.00 1.83 1.83 99 1009.2
20260510010008 11 343 3.2 3.2 0.00 1.83 1.83 99 1009.5
20260510005504 11 350 3.2 4.8 0.00 1.83 1.83 99 1009.3
20260510005002 11 355 3.2 4.8 0.00 1.83 1.83 99 1009.5
20260510004459 11 348 4.8 4.8 0.00 1.83 1.83 99 1009.2
20260510003957 11 334 3.2 4.8 0.00 1.83 1.83 99 1009.0
20260510003453 11 334 4.8 4.8 0.00 1.83 1.83 99 1009.3
20260510002948 11 344 4.8 6.4 0.00 1.83 1.83 99 1008.9
20260510002444 11 351 3.2 4.8 0.00 1.83 1.83 99 1008.9
20260510001941 11 3 3.2 4.8 0.00 1.83 1.83 99 1009.0
20260510001438 11 343 4.8 4.8 0.00 1.83 1.83 99 1009.0
20260510000936 11 343 4.8 4.8 0.00 1.83 1.83 99 1008.8
20260510000433 11 351 3.2 4.8 0.00 1.83 1.83 99 1008.8
20260509235929 11 336 3.2 6.4 0.00 1.83 1.83 99 1008.8
20260509235426 11 340 3.2 4.8 0.00 1.83 1.83 99 1008.8
20260509234922 11 354 3.2 4.8 0.00 1.83 1.83 99 1008.9
20260509234419 11 4 3.2 4.8 0.00 1.83 1.83 99 1009.0
20260509233917 11 350 3.2 4.8 0.00 1.83 1.83 99 1008.8
20260509233414 11 340 4.8 4.8 0.00 1.83 1.83 99 1008.9
20260509232910 11 348 3.2 4.8 0.00 1.83 1.83 99 1009.0
20260509232408 11 340 4.8 4.8 0.00 1.83 1.83 99 1009.3
20260509231904 11 352 4.8 4.8 0.05 1.83 1.83 98 1009.1
20260509231400 11 340 4.8 4.8 0.05 1.83 1.83 98 1009.3
20260509230859 11 345 3.2 4.8 0.00 1.83 1.83 98 1009.3
20260509230355 11 331 3.2 4.8 0.00 1.83 1.83 98 1009.4
20260509225851 11 1 3.2 4.8 0.00 1.83 1.83 98 1009.4
20260509225348 11 335 4.8 4.8 0.00 1.83 1.83 98 1009.5
20260509224843 11 332 3.2 4.8 0.05 1.83 1.83 98 1009.5
20260509224340 11 357 3.2 3.2 0.13 1.83 1.83 98 1009.3
20260509223837 11 342 4.8 4.8 0.05 1.80 1.80 98 1009.6
20260509223333 11 339 3.2 4.8 0.13 1.80 1.80 98 1009.5
20260509222831 11 327 3.2 4.8 0.23 1.80 1.80 98 1009.5
20260509222326 10 338 3.2 4.8 0.23 1.78 1.78 98 1009.6
20260509221821 10 1 3.2 4.8 0.23 1.75 1.75 98 1009.7
20260509221319 10 345 3.2 3.2 0.13 1.73 1.73 98 1009.7
20260509220814 10 336 3.2 3.2 0.18 1.73 1.73 98 1009.8
20260509220310 10 354 3.2 4.8 0.18 1.70 1.70 98 1009.8
20260509215806 10 341 3.2 3.2 0.13 1.70 1.70 98 1010.0
20260509215305 10 339 3.2 3.2 0.05 1.68 1.68 98 1009.9
20260509214759 10 346 3.2 3.2 0.05 1.68 1.68 98 1009.9
20260509214257 10 355 3.2 3.2 0.05 1.68 1.68 98 1009.7
20260509213754 10 346 4.8 4.8 0.05 1.65 1.65 98 1009.6